ND5T-1 Weather Reports


time (UTC)temp
F
wind
direction
speed
knots
gust
knots
rain 1hr
in
rain 24hr
in
rain mn
in
humidity
%
barometer
mb
20260505074318 70 65 0.0 0.0 0.00 0.00 0.00 89 1009.7
20260505073336 70 65 0.0 0.0 0.00 0.00 0.00 89 1009.8
20260505072336 70 65 0.0 1.7 0.00 0.00 0.00 89 1010.0
20260505071353 70 281 0.0 0.0 0.00 0.00 0.00 89 1010.0
20260505070333 70 281 0.0 0.9 0.00 0.00 0.00 88 1010.1
20260505065320 70 304 0.0 0.9 0.00 0.00 0.00 88 1010.2
20260505064319 70 305 0.0 0.0 0.00 0.00 0.00 87 1010.2
20260505063321 70 305 0.0 0.0 0.00 0.00 0.00 87 1010.5
20260505062319 70 305 0.0 0.0 0.00 0.00 0.00 86 1010.5
20260505061318 70 304 0.0 0.0 0.00 0.00 0.00 86 1010.7
20260505060320 70 304 0.0 0.0 0.00 0.00 0.00 85 1010.6
20260505055332 71 304 0.0 0.9 0.00 0.00 0.00 85 1010.6
20260505054332 71 304 0.0 1.7 0.00 0.00 0.00 84 1010.8
20260505053332 71 321 0.0 0.0 0.00 0.00 0.00 83 1010.7
20260505052346 71 321 0.0 0.9 0.00 0.00 0.00 83 1011.0
20260505051323 72 351 0.0 2.6 0.00 0.00 0.00 82 1011.1
20260505050324 72 31 0.0 0.9 0.00 0.00 0.00 81 1011.1
20260505041325 73 75 0.0 0.9 0.00 0.00 0.00 80 1010.9
20260505040325 73 13 0.0 1.7 0.00 0.00 0.00 79 1011.3
20260505035334 73 133 0.0 0.9 0.00 0.00 0.00 79 1011.1
20260505034332 73 133 0.0 2.6 0.00 0.00 0.00 79 1011.1
20260505033331 73 306 0.0 1.7 0.00 0.00 0.00 78 1011.4
20260505032334 73 90 0.9 2.6 0.00 0.00 0.00 78 1011.4
20260505031318 73 53 0.0 1.7 0.00 0.00 0.00 78 1011.4
20260505030318 73 223 0.0 3.5 0.00 0.00 0.00 79 1011.2
20260505025327 73 222 0.0 4.3 0.00 0.00 0.00 78 1011.1
20260505024349 73 121 0.0 2.6 0.00 0.00 0.00 77 1011.2
20260505023331 73 126 0.0 0.9 0.00 0.00 0.00 77 1011.2
20260505022353 73 22 0.0 2.6 0.00 0.00 0.00 77 1011.2
20260505021348 73 156 0.0 2.6 0.00 0.00 0.00 77 1011.2
20260505020328 73 5 0.0 1.7 0.00 0.00 0.00 77 1011.0
20260505015317 73 69 0.0 0.0 0.00 0.00 0.00 76 1010.9
20260505014320 74 69 0.0 0.9 0.00 0.00 0.00 76 1010.7
20260505013322 74 69 0.0 0.0 0.00 0.00 0.00 75 1010.7
20260505012325 74 69 0.0 1.7 0.00 0.00 0.00 74 1010.6
20260505011329 75 32 0.0 0.9 0.00 0.00 0.00 73 1010.7
20260505010328 75 31 0.0 0.9 0.00 0.00 0.00 73 1010.6
20260505005317 75 343 0.0 1.7 0.00 0.00 0.00 73 1010.7
20260505004335 76 325 0.0 0.9 0.00 0.00 0.00 73 1010.6
20260505003317 76 323 0.0 1.7 0.00 0.00 0.00 72 1010.5
20260505002334 76 48 0.0 2.6 0.00 0.00 0.00 71 1010.5
20260505001334 76 101 0.9 3.5 0.00 0.00 0.00 71 1010.6
20260505000334 76 32 0.0 1.7 0.00 0.00 0.00 71 1010.8
20260504235329 77 195 0.0 2.6 0.00 0.00 0.00 70 1010.8
20260504234333 77 160 0.0 3.5 0.00 0.00 0.00 70 1010.7
20260504233335 77 355 0.0 1.7 0.00 0.00 0.00 71 1010.7
20260504232336 77 99 0.0 2.6 0.00 0.00 0.00 70 1010.8
20260504231318 77 76 0.9 3.5 0.00 0.00 0.00 69 1011.0
20260504230319 77 92 0.9 3.5 0.00 0.00 0.00 69 1011.2
20260504225329 78 294 0.9 3.5 0.00 0.00 0.00 69 1011.1
20260504224348 78 106 1.7 5.2 0.00 0.00 0.00 68 1011.2
20260504223325 78 80 0.0 2.6 0.00 0.00 0.00 67 1011.4
20260504222325 79 78 0.9 4.3 0.00 0.00 0.00 66 1011.5
20260504221325 79 9 0.0 1.7 0.00 0.00 0.00 67 1011.6
20260504220330 79 113 0.0 1.7 0.00 0.00 0.00 65 1011.6
20260504215322 80 135 0.0 3.5 0.00 0.00 0.00 63 1011.5
20260504214320 80 70 0.0 2.6 0.00 0.00 0.00 61 1011.8
20260504213321 81 84 0.9 1.7 0.00 0.00 0.00 59 1011.7
20260504212321 83 80 0.0 1.7 0.00 0.00 0.00 57 1011.8
20260504211321 83 105 0.0 1.7 0.00 0.00 0.00 57 1012.2
20260504210340 83 105 0.0 1.7 0.00 0.00 0.00 55 1012.1
20260504205347 83 101 0.9 2.6 0.00 0.00 0.00 54 1012.4
20260504204330 83 36 0.0 2.6 0.00 0.00 0.00 56 1012.6
20260504203330 83 207 0.0 2.6 0.00 0.00 0.00 55 1012.7
20260504202326 82 60 0.0 1.7 0.00 0.00 0.00 54 1012.9
20260504201329 83 206 0.0 3.5 0.00 0.00 0.00 54 1012.9
20260504200331 82 73 0.0 1.7 0.00 0.00 0.00 54 1013.0
20260504195319 82 117 0.0 1.7 0.00 0.00 0.00 56 1013.3
20260504194320 82 131 0.0 2.6 0.00 0.00 0.00 58 1013.5
20260504193319 81 271 0.0 2.6 0.00 0.00 0.00 57 1013.7
20260504192320 81 107 0.0 1.7 0.00 0.00 0.00 56 1013.7
20260504191319 81 22 0.0 0.9 0.00 0.00 0.00 59 1014.0
20260504190318 81 297 0.0 2.6 0.00 0.00 0.00 56 1014.1
20260504185324 82 57 0.0 3.5 0.00 0.00 0.00 54 1014.1
20260504184324 82 55 0.0 2.6 0.00 0.00 0.00 55 1014.2
20260504183325 82 105 0.0 2.6 0.00 0.00 0.00 52 1014.3
20260504182324 81 331 0.9 3.5 0.00 0.00 0.00 54 1014.4
20260504181325 81 311 0.0 1.7 0.00 0.00 0.00 55 1014.5
20260504180348 81 16 0.0 3.5 0.00 0.00 0.00 53 1014.6
20260504175353 81 71 0.0 2.6 0.00 0.00 0.00 57 1014.9
20260504174332 80 5 0.0 2.6 0.00 0.00 0.00 57 1015.0
20260504173335 80 5 0.0 2.6 0.00 0.00 0.00 59 1015.1
20260504172349 79 148 0.9 4.3 0.00 0.00 0.00 55 1015.3
20260504171330 79 90 0.0 2.6 0.00 0.00 0.00 60 1015.4
20260504170351 78 342 0.0 4.3 0.00 0.00 0.00 58 1015.5
20260504160346 77 290 0.9 2.6 0.00 0.00 0.00 61 1016.3
20260504150331 73 190 0.0 2.6 0.00 0.00 0.00 67 1016.4
20260504141334 68 163 0.0 0.9 0.00 0.00 0.00 80 1016.3
20260504140333 66 164 0.0 0.9 0.00 0.00 0.00 81 1016.3
20260504130324 57 171 0.0 0.0 0.00 0.00 0.00 95 1016.4
20260504110324 55 174 0.0 0.0 0.00 0.00 0.00 93 1016.0
20260504100316 55 174 0.0 0.0 0.00 0.00 0.00 92 1016.2
20260504081332 57 174 0.0 0.0 0.00 0.00 0.00 91 1016.8
20260504080335 57 174 0.0 0.0 0.00 0.00 0.00 91 1017.0